World > North America > United States > Oregon

Danner, Oregon Regional Weather

Lat: 42.94N, Lon: 117.34W
Wx Zone: ORZ063Web Search

If you are on your PC, you can easily pass this page to your phone by scanning the QR Code near the bottom with your camera.

Feedback


°F Click to change Danner hourly weather to Imperial units.Click to change Danner hourly weather to Metric units. °C
Danner Weather Map
UTC Time: 5/14/2021, 16:07
Your Time:

Danner, OR Regional Weather

Expires:202105141600;;104223
ASUS46 KPQR 141510
RWROR 

OREGON REGIONAL WEATHER ROUNDUP
NATIONAL WEATHER SERVICE PORTLAND OR
800 AM PDT FRI MAY 14 2021

NOTE: "FAIR" INDICATES FEW OR NO CLOUDS BELOW 12,000 FEET WITH
NO SIGNIFICANT WEATHER AND/OR OBSTRUCTIONS TO VISIBILITY.


ORZ029>031-041-044-049-050-061>064-502-503-505>511-141600-
EASTERN OREGON

  
CITY           SKY/WX    TMP DP  RH WIND       PRES   REMARKS
MADRAS         MOSUNNY   59  41  51 CALM      30.09S                  
REDMOND        PTSUNNY   60  37  42 W3        30.08S                  
BEND           PTSUNNY   61  37  41 NW8       30.10S                  
PRINEVILLE     MOSUNNY   57  36  44 CALM      30.09S                  
KLAMATH FALLS  PTSUNNY   53  45  74 CALM      30.07R                  
LAKEVIEW       MOSUNNY   51  31  46 NW6       30.10R                  
HERMISTON      PTSUNNY   62  43  49 S3        30.05R                  
PENDLETON      PTSUNNY   59  42  53 SE6       30.05S                  
JOHN DAY       MOSUNNY   52  38  59 E6        30.09S                  
MEACHAM        PTSUNNY   47  38  71 CALM      30.09S                  
LA GRANDE      PTSUNNY   55  41  59 CALM      30.08S                  
BAKER CITY     PTSUNNY   53  41  63 SW5       30.07S                  
BURNS          PTSUNNY   56  35  45 CALM      30.06S                  
ROME             N/A     61  33  35 NW3       30.03S                  
ONTARIO        PTSUNNY   67  40  37 VRB3      30.01R                  
$$


OTHER REGIONAL REPORTS
  
CITY           SKY/WX    TMP DP  RH WIND       PRES   REMARKS
SEATTLE        MOSUNNY   58  47  66 NE5       30.16R                  
SPOKANE        MOSUNNY   57  38  48 NE7       30.09R                  
VANCOUVER BC   MOSUNNY   59  52  77 NW6       30.15S                  
PRINCE GEORGE  MOSUNNY   52  39  62 SE5       30.13S                  
DAWSON CREEK   SUNNY     48  41  76 VRB2      30.10F                  
WHITEHORSE     PTSUNNY   36  32  87 SE13      29.96S WCI  27          
BOISE          MOSUNNY   57  39  51 CALM      30.00R                  
REDDING        SUNNY     66  44  45 CALM      29.90S                  
SAN FRANCISCO  CLOUDY    54  47  77 W12       30.00R                  

$$

  

SKY/WX - Weather  TMP - Temperature  DP - Dew Point  RH - Relative Humidity
WIND - Wind Direction/Speed PRES - Barometric Pressure VSB - Visibility
WCI - Wind Chill Index E13G22 Wind - East Wind 13 mph/Gusts of 22 mph